Date String (YYYY-MM-DD hh:mm:ss) UTC,Instrument flags,Ambient pressure (hPa),Sample flow (lpm),Bypass flow (lpm),Sample temperature (°C),Ambient temperature (°C),ASC tube jacket temperature (°C),LED temperature (°C),Box temperature (°C),Sample RH (%),Span deviation,Mass concentration (μg/m³),Mass concentration (μg/m³),Mass concentration (μg/m³)
DateTimeUTC,F1_M11,P_M11,Q1_M11,Q2_M11,T1_M11,T2_M11,T3_M11,T4_M11,T5_M11,U1_M11,ZSPAN_M11,X2_M11,X0_M11,X1_M11
2021-10-13 10:00:00,,0813.4,4.99,0.00,22.8,22.0,00.0,31.9,24.6,17.1,0000.0,0001.68,0006.72,0000.88
2021-10-13 10:01:00,,0813.3,5.00,0.00,22.8,22.0,00.0,31.9,24.5,17.7,0000.0,0001.69,0006.88,0000.90
2021-10-13 10:02:00,,0813.2,4.99,0.00,22.8,22.0,00.0,31.9,24.6,17.3,0000.0,0001.72,0007.20,0000.91
2021-10-13 10:03:00,,0813.3,5.00,0.00,22.8,22.0,00.0,31.9,24.6,16.4,0000.0,0001.69,0007.28,0000.90
2021-10-13 10:04:00,,0813.3,4.99,0.00,22.8,22.1,00.0,31.9,24.6,16.1,0000.0,0001.67,0007.30,0000.86
2021-10-13 10:05:00,,0813.5,5.02,0.00,22.8,22.1,00.0,31.9,24.7,16.2,0000.0,0001.73,0007.52,0000.82
2021-10-13 10:06:00,,0813.5,4.99,0.00,22.9,22.1,00.0,31.9,24.7,17.1,0000.0,0001.78,0007.60,0000.84
2021-10-13 10:07:00,,0813.5,5.01,0.00,22.9,22.1,00.0,31.9,24.7,17.0,0000.0,0001.79,0008.05,0000.87
2021-10-13 10:08:00,,0813.4,5.00,0.00,22.9,22.1,00.0,31.9,24.7,16.4,0000.0,0001.74,0008.03,0000.88
2021-10-13 10:09:00,,0813.2,4.99,0.00,22.9,22.1,00.0,31.9,24.7,15.1,0000.0,0001.78,0007.65,0000.85
2021-10-13 10:10:00,,0813.1,5.00,0.00,22.9,22.1,00.0,32.0,24.7,13.8,0000.0,0001.76,0007.07,0000.80
2021-10-13 10:11:00,,0813.1,5.00,0.00,22.9,22.1,00.0,32.0,24.7,13.6,0000.0,0001.72,0007.05,0000.76
2021-10-13 10:12:00,,0813.3,5.00,0.00,22.9,22.1,00.0,32.0,24.7,14.1,0000.0,0001.60,0006.76,0000.69
2021-10-13 10:13:00,,0813.4,4.99,0.00,22.9,22.1,00.0,32.0,24.7,14.1,0000.0,0001.58,0006.20,0000.62
2021-10-13 10:14:00,,0813.5,5.00,0.00,22.9,22.1,00.0,32.0,24.7,13.8,0000.0,0001.60,0005.64,0000.59
2021-10-13 10:15:00,,0813.5,4.99,0.00,22.9,22.1,00.0,32.0,24.6,15.0,0000.0,0001.55,0005.53,0000.57
2021-10-13 10:16:00,,0813.5,5.01,0.00,22.9,22.1,00.0,32.0,24.7,17.1,0000.0,0001.53,0005.18,0000.61
2021-10-13 10:17:00,,0813.5,4.99,0.00,22.9,22.1,00.0,32.0,24.7,17.5,0000.0,0001.52,0004.98,0000.68
2021-10-13 10:18:00,,0813.6,5.00,0.00,22.9,22.1,00.0,32.0,24.8,16.2,0000.0,0001.50,0003.93,0000.68
2021-10-13 10:19:00,,0813.4,5.00,0.00,22.9,22.1,00.0,32.0,24.7,16.3,0000.0,0001.56,0003.93,0000.70
2021-10-13 10:20:00,,0813.3,5.00,0.00,22.9,22.1,00.0,32.0,24.7,13.9,0000.0,0001.50,0003.96,0000.70
2021-10-13 10:21:00,,0813.4,4.99,0.00,22.9,22.1,00.0,32.0,24.7,14.6,0000.0,0001.44,0003.73,0000.70
2021-10-13 10:22:00,,0813.4,5.00,0.00,22.9,22.1,00.0,32.0,24.8,15.0,0000.0,0001.51,0003.87,0000.73
2021-10-13 10:23:00,,0813.5,5.01,0.00,22.9,22.1,00.0,32.0,24.7,14.1,0000.0,0001.57,0003.98,0000.75
2021-10-13 10:24:00,,0813.3,4.99,0.00,23.0,22.1,00.0,32.0,24.8,14.1,0000.0,0001.55,0003.95,0000.77
2021-10-13 10:25:00,,0813.2,4.99,0.00,23.0,22.1,00.0,32.0,24.8,14.1,0000.0,0001.48,0003.65,0000.78
2021-10-13 10:26:00,,0813.2,5.01,0.00,23.0,22.2,00.0,32.1,24.8,13.9,0000.0,0001.51,0003.73,0000.78
2021-10-13 10:27:00,,0813.2,4.99,0.00,23.0,22.2,00.0,32.1,24.9,13.5,0000.0,0001.45,0004.07,0000.71
2021-10-13 10:28:00,,0813.4,5.00,0.00,23.0,22.2,00.0,32.1,24.9,13.4,0000.0,0001.32,0004.05,0000.58
2021-10-13 10:29:00,,0813.5,4.99,0.00,23.0,22.2,00.0,32.1,24.9,15.5,0000.0,0001.29,0004.21,0000.55
2021-10-13 10:30:00,,0813.4,5.01,0.00,23.0,22.2,00.0,32.1,24.8,17.8,0000.0,0001.38,0004.46,0000.64
2021-10-13 10:31:00,,0813.4,4.99,0.00,23.0,22.2,00.0,32.1,24.8,18.9,0000.0,0001.53,0004.08,0000.80
2021-10-13 10:32:00,,0813.3,5.00,0.00,22.9,22.1,00.0,32.1,24.8,18.8,0000.0,0001.68,0004.51,0000.96
2021-10-13 10:33:00,,0813.4,5.01,0.00,22.9,22.1,00.0,32.1,24.7,16.1,0000.0,0001.67,0004.63,0000.99
2021-10-13 10:34:00,,0813.5,4.99,0.00,22.9,22.0,00.0,32.1,24.6,18.0,0000.0,0001.85,0004.80,0001.11
2021-10-13 10:35:00,,0813.6,5.01,0.00,22.8,21.9,00.0,32.1,24.5,19.6,0000.0,0002.08,0004.92,0001.33
2021-10-13 10:36:00,,0813.5,4.99,0.00,22.8,21.8,00.0,32.0,24.5,19.7,0000.0,0002.32,0005.21,0001.55
2021-10-13 10:37:00,,0813.4,5.00,0.00,22.7,21.8,00.0,32.0,24.4,19.8,0000.0,0002.56,0005.55,0001.76
2021-10-13 10:38:00,,0813.5,5.02,0.00,22.7,21.8,00.0,32.0,24.4,19.6,0000.0,0002.78,0005.49,0001.96
2021-10-13 10:39:00,,0813.7,4.99,0.00,22.7,21.8,00.0,32.0,24.4,19.4,0000.0,0003.03,0005.87,0002.16
2021-10-13 10:40:00,,0813.5,5.01,0.00,22.7,21.8,00.0,32.0,24.4,19.9,0000.0,0003.18,0005.97,0002.38
2021-10-13 10:41:00,,0813.5,5.00,0.00,22.6,21.8,00.0,31.9,24.3,18.7,0000.0,0003.17,0005.68,0002.43
2021-10-13 10:42:00,,0813.5,5.00,0.00,22.6,21.7,00.0,31.9,24.3,18.0,0000.0,0003.16,0006.35,0002.39
2021-10-13 10:43:00,,0813.5,5.01,0.00,22.6,21.8,00.0,31.9,24.3,17.0,0000.0,0003.15,0006.12,0002.33
2021-10-13 10:44:00,,0813.5,5.01,0.00,22.6,21.8,00.0,31.9,24.3,16.5,0000.0,0003.16,0005.97,0002.35
2021-10-13 10:45:00,,0813.5,4.99,0.00,22.6,21.8,00.0,31.9,24.3,16.8,0000.0,0003.11,0005.91,0002.31
2021-10-13 10:46:00,,0813.9,5.00,0.00,22.6,21.8,00.0,31.9,24.4,15.9,0000.0,0002.97,0005.76,0002.14
2021-10-13 10:47:00,,0814.0,5.00,0.00,22.7,21.8,00.0,31.8,24.4,16.3,0000.0,0002.86,0006.28,0002.00
2021-10-13 10:48:00,,0813.5,4.98,0.00,22.7,21.8,00.0,31.8,24.4,16.6,0000.0,0002.70,0006.21,0001.88
2021-10-13 10:49:00,,0813.5,5.00,0.00,22.7,21.8,00.0,31.8,24.5,15.1,0000.0,0002.53,0006.30,0001.74
2021-10-13 10:50:00,,0813.3,5.01,0.00,22.7,21.9,00.0,31.8,24.5,14.6,0000.0,0002.40,0007.10,0001.59
2021-10-13 10:51:00,,0813.4,4.99,0.00,22.7,21.9,00.0,31.8,24.5,14.8,0000.0,0002.26,0007.00,0001.42
2021-10-13 10:52:00,,0813.5,5.01,0.00,22.7,21.9,00.0,31.8,24.5,15.0,0000.0,0002.12,0006.92,0001.26
2021-10-13 10:53:00,,0813.6,4.98,0.00,22.7,21.9,00.0,31.8,24.5,14.2,0000.0,0002.05,0007.56,0001.15
2021-10-13 10:54:00,,0813.5,5.02,0.00,22.7,21.9,00.0,31.8,24.5,14.0,0000.0,0002.00,0007.54,0001.03
2021-10-13 10:55:00,,0813.6,5.00,0.00,22.8,21.9,00.0,31.8,24.5,14.4,0000.0,0001.99,0008.10,0000.98
2021-10-13 10:56:00,,0813.5,4.99,0.00,22.8,21.9,00.0,31.9,24.5,14.5,0000.0,0001.95,0008.14,0000.90
2021-10-13 10:57:00,,0813.4,5.00,0.00,22.8,21.9,00.0,31.9,24.6,14.7,0000.0,0001.86,0008.17,0000.85
2021-10-13 10:58:00,,0813.4,5.01,0.00,22.8,21.9,00.0,31.9,24.6,14.4,0000.0,0001.81,0008.18,0000.79
2021-10-13 10:59:00,,0813.5,5.00,0.00,22.8,21.9,00.0,31.9,24.5,14.3,0000.0,0001.73,0008.18,0000.70
